Millville, NJ

5:16 AM EDT on June 27, 2017 (GMT -0400)
Millville Municipal

Weather History for KMIV - January, 2013

Change the Weather History Date:

Thursday, January 17, 2013

  Actual Average Record
Temperature  
Mean Temperature 40 °F -  
Max Temperature 43 °F 38 °F 62 °F (1990)
Min Temperature 36 °F 19 °F -9 °F (1982)
Degree Days  
Heating Degree Days 25    
Moisture  
Dew Point 34 °F    
Average Humidity 80    
Maximum Humidity 97    
Minimum Humidity 58    
Precipitation  
Precipitation 0.01 in - - ()
Sea Level Pressure  
Sea Level Pressure 30.05 in    
Wind  
Wind Speed 2 mph (NW)    
Max Wind Speed 9 mph    
Max Gust Speed -    
Visibility 8 miles    
Events Rain    
Averages and records for this station are not official NWS values.
T = Trace of Precipitation, MM = Missing Value Source: NWS Daily Summary

Daily Weather History Graph

Daily Weather History Graph

Search for Another Location

Airport or City:

Trip Planner

Search our weather history database for the weather conditions in past years. The results will help you decide how hot, cold, wet, or windy it might be!

Date:

Astronomy

Jan. 17, 2013 Rise Set
Actual Time 7:17 AM EST 5:03 PM EST
Civil Twilight 6:48 AM EST 5:32 PM EST
Nautical Twilight 6:15 AM EST 6:05 PM EST
Astronomical Twilight 5:43 AM EST 6:38 PM EST
Moon 10:25 AM EST (1/17) 11:50 PM EST (1/17)
Length of Visible Light 10h 44m
Length of Day
9h 46m
Waxing Crescent, 37% of the Moon is Illuminated
Jan 17
Waxing Crescent
Jan 18
First Quarter
Jan 26
Full
Feb 3
Last Quarter
Feb 10
New

Hourly Weather History & Observations

Time (EST) Temp. Windchill Dew Point Humidity Pressure Visibility Wind Dir Wind Speed Gust Speed Precip Events Conditions
12:54 AM 39.9 °F - 37.9 °F 93% 29.98 in 4.0 mi Calm Calm - 0.00 in Rain Light Rain
1:54 AM 39.9 °F - 37.9 °F 93% 29.98 in 5.0 mi Calm Calm - 0.00 in   Overcast
2:54 AM 39.9 °F - 39.0 °F 97% 29.99 in 6.0 mi Calm Calm - 0.00 in Rain Light Rain
4:54 AM 41.0 °F - 39.0 °F 93% 29.99 in 6.0 mi Calm Calm - 0.00 in   Overcast
5:54 AM 41.0 °F 39.0 °F 39.0 °F 93% 30.01 in 8.0 mi West 3.5 mph - N/A   Overcast
6:54 AM 41.0 °F - 39.0 °F 93% 30.04 in 9.0 mi Calm Calm - N/A   Overcast
7:54 AM 41.0 °F - 37.9 °F 89% 30.06 in 9.0 mi Calm Calm - 0.01 in   Scattered Clouds
8:54 AM 42.1 °F 39.2 °F 36.0 °F 79% 30.10 in 10.0 mi NW 4.6 mph - N/A   Mostly Cloudy
9:54 AM 42.1 °F 36.6 °F 32.0 °F 67% 30.09 in 10.0 mi NNW 9.2 mph - N/A   Mostly Cloudy
10:54 AM 43.0 °F 38.2 °F 30.0 °F 60% 30.12 in 10.0 mi WNW 8.1 mph - N/A   Mostly Cloudy
11:54 AM 42.1 °F 37.1 °F 28.9 °F 60% 30.10 in 10.0 mi NNW 8.1 mph - N/A   Clear
1:54 PM 43.0 °F 37.7 °F 28.9 °F 58% 30.08 in 10.0 mi North 9.2 mph - N/A   Mostly Cloudy
2:54 PM 42.1 °F 37.7 °F 28.9 °F 60% 30.08 in 10.0 mi NNW 6.9 mph - N/A   Mostly Cloudy
3:54 PM 41.0 °F - 28.9 °F 62% 30.09 in 10.0 mi Calm Calm - N/A   Overcast
4:54 PM 39.0 °F - 33.1 °F 79% 30.09 in 10.0 mi Calm Calm - 0.00 in   Overcast
5:54 PM 39.0 °F - 33.1 °F 79% 30.09 in 10.0 mi Calm Calm - 0.00 in   Overcast
6:54 PM 39.0 °F 35.7 °F 32.0 °F 76% 30.11 in 10.0 mi WNW 4.6 mph - N/A   Overcast
7:54 PM 39.0 °F 36.8 °F 30.9 °F 73% 30.09 in 10.0 mi NNW 3.5 mph - 0.00 in Rain Light Rain
8:54 PM 37.0 °F - 34.0 °F 89% 30.07 in 9.0 mi Calm Calm - 0.00 in   Overcast
9:54 PM 37.0 °F 34.5 °F 33.1 °F 86% 30.01 in 8.0 mi East 3.5 mph - N/A   Overcast
10:03 PM 37.4 °F - 33.8 °F 87% 30.04 in 8.0 mi Calm Calm - N/A   Overcast
10:54 PM 37.0 °F - 34.0 °F 89% 30.04 in 7.0 mi Calm Calm - N/A   Overcast
11:54 PM 36.0 °F - 33.1 °F 89% 30.01 in 7.0 mi Calm Calm - N/A   Overcast